Regional Weather Roundup
Issued by NWS Wakefield, VA

Home | Current Version | Previous Version | Text Only | Print | Product List | Glossary Off
Versions: 1 2 3 4 5 6 7 8 9 10 11 12 13 14 15 16 17 18 19 20 21 22 23 24 25 26 27 28 29 30 31 32 33 34 35 36 37 38 39 40 41 42 43 44 45 46 47 48 49 50

000
ASUS41 KAKQ 190810
RWRAKQ

REGIONAL WEATHER ROUNDUP
NATIONAL WEATHER SERVICE WAKEFIELD VA
400 AM EDT FRI SEP 19 2014

Note: "fair" indicates few or no clouds below 12,000 feet with no
significant weather and/or obstructions to visibility. * = Denotes
station may not report precipitation (e.g., rain,snow,etc.),
thunder or fog.

VAZ042-051-052>054-056-190900-
NORTHERN VIRGINIA

CITY           SKY/WX    TMP DP  RH WIND       PRES   REMARKS
WASH NATIONAL  PTCLDY    63  57  82 N6        30.15R
DULLES         PTCLDY    56  51  84 NW3       30.15R
FORT BELVOIR   PTCLDY    57  56  96 CALM      30.15R
QUANTICO       PTCLDY    60  58  92 NW8       30.15R
FREDERICKSBRG* MOCLDY    61  61 100 CALM      30.13R
STAFFORD*      CLOUDY    57  57 100 CALM      30.17S FOG
WARRENTON      MOCLDY    55  55 100 CALM      30.13F FOG
CULPEPER*      PTCLDY    55  54  94 CALM      30.15S FOG
MANASSAS*      CLOUDY    57  57 100 CALM      30.15R
LEESBURG*      MOCLDY    55  54  94 CALM      30.16S
WINCHESTER     CLOUDY    54  46  76 CALM      30.17R
FRONT ROYAL*   CLOUDY    52  50  93 CALM      30.16R
LURAY*         MOSUNNY   59  52  77 N3        30.15S
$$

VAZ048-049-060>072-079>083-190900-
CENTRAL AND SOUTH CENTRAL VIRGINIA...AND NORTH CENTRAL NORTH CAROLINA

CITY           SKY/WX    TMP DP  RH WIND       PRES   REMARKS
RICHMOND       CLOUDY    63  59  87 N3        30.12S
CHESTERFIELD*  CLOUDY   N/A N/A N/A CALM      30.13S
PETERSBURG*    CLOUDY    62  60  93 NE3       30.12S
HANOVER        CLOUDY    60  59  96 NE3       30.15R
TAPPAHANNOCK*  MOCLDY    55  53  94 CALM      30.14S FOG
CHARLOTTSVILLE CLOUDY    61  57  87 NE7       30.14R
ORANGE*        PTCLDY    59  55  88 CALM      30.15S
LOUISA*        CLOUDY    61  61 100 CALM      30.13S FOG
FARMVILLE*     CLOUDY    64  63  94 N5        30.11R
CREWE*         CLOUDY    62  60  92 CALM      30.11S
FORT PICKETT*  CLOUDY    63  60  89 CALM      30.11S
LUNENBURG*     PTSUNNY   62  60  93 CALM      30.11S
SOUTH HILL*    CLOUDY    64  64 100 CALM      30.16S
LAWRENCEVILLE* CLOUDY    61  60  96 CALM      30.11S
ROANOKE RAPIDS PTSUNNY   59  59 100 CALM      30.10S
RALEIGH        MOCLDY    64  59  83 CALM      30.10R
$$

VAZ088>098-190900-
SOUTHEAST VIRGINIA

CITY           SKY/WX    TMP DP  RH WIND       PRES   REMARKS
NORFOLK        MOCLDY    66  59  78 CALM      30.10S
VIRGINIA BEACH PTCLDY    61  56  83 CALM      30.09F
NORFOLK NAVAL  CLOUDY    68  58  70 CALM      30.12S
WEST POINT*    MOCLDY    60  58  91 CALM      30.14S
NEWPORT NEWS   CLOUDY    67  60  78 CALM      30.12R
LANGLEY AFB    CLOUDY    64  64  99 NE1       30.10S
FORT EUSTIS    CLOUDY    66  66 100 NE3       30.10S
WILLIAMSBURG*  CLOUDY    66  63  88 CALM      30.12F
HR EXEC AP*    MOSUNNY   57  54  88 CALM      30.13S
FRANKLIN*      PTCLDY    59  57  94 CALM      30.11S
WAKEFIELD      CLOUDY    62  59  90 CALM      30.11S
$$

VAZ020-022-025-037-045-190900-
WEST CENTRAL AND SOUTHWEST VIRGINIA

CITY           SKY/WX    TMP DP  RH WIND       PRES   REMARKS
STAUNTON*      CLOUDY    61  51  69 N3        30.17S
HOT SPRINGS VA CLOUDY    52  37  56 E8        30.21F
LYNCHBURG      CLOUDY    63  62  97 NE5       30.13S
DANVILLE       MOCLDY    64  61  90 NE3       30.11R
SOUTH BOSTON*  NOT AVBL
MARTINSVILLE   CLOUDY    63  63 100 CALM      30.13S FOG
ROANOKE        CLOUDY    65  61  87 CALM      30.14S
BLACKSBURG     MOCLDY    63  63 100 CALM      30.16S
DUBLIN*        CLOUDY    59  59  99 W3        30.15F
MARION*        CLOUDY    59  57  91 CALM      30.17S
HILLSVILLE*    CLOUDY    59  58  97 CALM      30.15S
RICHLANDS*     SUNNY     59  56  88 CALM      30.13S
WISE*          CLEAR     54  54 100 CALM      30.14F FOG
ABINGDON*      CLEAR     58  55  89 CALM      30.11S
$$

MDZ021>025-VAZ099-100-190900-
SOUTHERN MARYLAND AND THE DELMARVA PENINSULA

CITY           SKY/WX    TMP DP  RH WIND       PRES   REMARKS
PATUXENT RIVER CLEAR     57  56  96 W5        30.12S
BAY BRIDGE APT   N/A     64  59  82 N8        30.14R
LEONARDTOWN    CLEAR     54  52  94 CALM      30.14S
DOVER          CLEAR     56  56  99 NW8       30.12R
GEORGETOWN     CLEAR     56  54  93 CALM      30.14R
EASTON         CLEAR     57  57 100 CALM      30.16S
CAMBRIDGE        N/A     55  54  94 SE3       30.12S VSB 3/4
SALISBURY      CLEAR     59  55  87 CALM      30.13R
OCEAN CITY     MOCLDY    58  56  93 CALM      30.13R
WALLOPS ISLAND MOCLDY    62  58  86 N3        30.13S
ACCOMACK*      CLOUDY    59  55  88 CALM      30.12S
$$

NCZ012>017-030>032-190900-
EASTERN NORTH CAROLINA

CITY           SKY/WX    TMP DP  RH WIND       PRES   REMARKS
ELIZABETH CITY CLEAR     61  58  90 NW5       30.10R
AHOSKIE*       CLEAR     58  56  94 CALM      30.10S
EDENTON*       CLEAR     59  58  96 CALM      30.09S
CURRITUCK*     CLEAR     62  59  90 CALM      30.10S
KILL DEVIL HLS CLEAR     70  57  61 E6        30.07S
MANTEO         CLEAR     69  57  64 NE8       30.08S
CAPE HATTERAS  PTCLDY    68  62  81 NE6       30.06F
TARBORO*       CLOUDY    59  58  96 CALM      30.10S
GOLDSBORO      CLEAR     62  61  98 CALM      30.06S
WASHINGTON     PTCLDY    58  56  92 CALM      30.09S
GREENVILLE     CLEAR     59  59 100 CALM      30.10S
NEW BERN       MOCLDY    67  60  78 NE7       30.08S
WILMINGTON     MOCLDY    66  62  87 NE8       30.04R
$$

VAZ048-190900-
ELSEWHERE

CITY           SKY/WX    TMP DP  RH WIND       PRES   REMARKS
HARRISBURG PA  PTCLDY    54  48  80 NW6       30.18R
BALTIMORE      CLEAR     56  52  86 N3        30.15R
ANNAPOLIS      CLEAR     64  60  87 N8        30.14R FOG
ANDREWS AFB    CLEAR     55  55  99 CALM      30.14R
WILMINGTON DE  CLEAR     57  51  80 N10       30.17R
PHILADELPHIA   CLEAR     59  50  72 N8        30.17R
WILDWOOD NJ*   CLEAR     57  54  88 N5        30.14R
ATLANTIC CITY  CLEAR     55  53  93 N8        30.14R
HENDERSON NC   CLOUDY    62  57  84 CALM      30.10S
GREENSBORO     CLOUDY    68  62  81 SE5       30.09R
ROCKY MOUNT    MOCLDY    60  57  89 CALM      30.09S
FAYETTEVILLE   CLOUDY    65  60  84 E3        30.06S
CHARLOTTE      LGT RAIN  67  64  90 SE10      30.07S
$$

VAZ100-190900-
MARINE

STATION/POSITION TIME  TEMP    WIND        PRES    WAVE   SWELL
                       AIR SEA DIR/SP/G            HT/PER HT/PER
                 (UTC) (F)     (DEG/KT/KT) (MB)    (FT/S) (FT/S)
44066 TX TWR #4  0800   69 72  320/ 10/ 12 1019.3R   2/ 9   2/ 9
CAPE MAY NJ      0800   67 75  300/  2/  6 1019.5S
LEWES DE         0800   62 73  270/  5/  5 1019.9R
15NM E FENWICK I 0800   70 72              1019.9R   2/11
OCEAN-CITY-INLET 0800   65 72  350/  2/  3 1019.7R
WACHAPREAGUE VA  0800   62 74   CALM  /  2 1019.9S
THOMAS POINT MD  0800   66 74  360/ 13/ 16 1021.3R
GOOSES REEF MD   0800   69     310/  2/  4 1020.6R
COVE POINT MD    0800   66     270/  4/  4 1020.0R
SOLOMONS ISLAND  0800      76                N/A
BISHOPS HEAD MD  0800   70 73  170/  3/  4 1019.5S
PINEY POINT MD   0800           50/  3/  3   N/A
POTOMAC MD       0800   70      50/  2/  4 1019.3S
CAMBRIDGE MD     0800   63 74   CALM  /  2 1019.7F
LEWISETTA VA     0800   65 74  290/  2/  3 1019.6F
RAPPAHANNOCK LGT 0800          100/  4/  4 1020.2F
STINGRAY PT      0800   71     160/  4/  6   N/A
YORK RVR RNG VA  0800   71     340/  4/  5 1019.1S
YORKTOWN VA      0800   69 76  260/  2/  2 1019.3S
JAMESTOWN VA     0800   69     260/  2/  4   N/A
DOMINION TERM VA 0800   71      CALM  /  2 1019.5S
KIPTOPEKE VA     0800      78   80/  4/  5   N/A
CHES BAY BRIDGE  0800   72 75   60/  6/  7 1018.8S
CAPE HENRY VA    0800   71     100/  7/  8 1018.0S
CHESAPEAKE LGHT  0700   71     100/  9/ 10 1019.9R
WILLOUBY STN VA  0800   71        CALM     1018.1F
S CRANEY ISL VA  0800          300/  3/  3 1019.0F
CAPE HENRY BUOY  0800      75                N/A     3/ 5   2/11
1ST LANDING BUOY 0800   72     100/  8/ 10 1018.9S
CAPE CHARLES BUO 0800      74                N/A     3/10   3/10
OFFSHORE WE BUOY 0800      74                N/A     4/12   3/12
64NM E OF VA BCH 0800   73 76   60/ 10/ 14 1018.6S   3/10   3/10
DUCK PIER NC     0800   72 75   70/ 11/ 13 1018.1R
44100 DUCK FRF   0800      74                N/A     4/11   2/11
44056 DUCK FRF   0800                        N/A     3/11   2/11
OREGON INLET NC  0800   71 73   50/ 10/ 13 1018.3R
HATTERAS NC      0800   72 75   40/  8/ 13 1018.3S
DIAMOND SHLS NC  0800   74      30/ 16/ 23 1016.9F   5/ 6   3/ 8
CAPE LOOKOUT NC  0700   75      60/ 15/ 16 1017.3S
$$


USA.gov is the U.S. government's official web portal to all federal, state and local government web resources and services.